TimeCDT,TemperatureF,Dew PointF,Humidity,Sea Level PressureIn,VisibilityMPH,Wind Direction,Wind SpeedMPH,Gust SpeedMPH,PrecipitationIn,Events,Conditions,WindDirDegrees,DateUTC
12:54 AM,21.0,19.0,92,30.02,8.0,NW,6.9,-,N/A,,Clear,310,2013-03-14 05:54:00
1:54 AM,19.9,17.1,89,30.04,7.0,West,5.8,-,N/A,,Clear,280,2013-03-14 06:54:00
2:54 AM,21.9,19.9,92,30.05,8.0,WNW,5.8,-,N/A,,Clear,290,2013-03-14 07:54:00
3:54 AM,25.0,23.0,92,30.06,9.0,West,6.9,-,N/A,,Clear,270,2013-03-14 08:54:00
4:54 AM,25.0,23.0,92,30.05,8.0,West,9.2,-,N/A,,Clear,270,2013-03-14 09:54:00
5:54 AM,25.0,23.0,92,30.07,7.0,WSW,8.1,-,N/A,,Clear,240,2013-03-14 10:54:00
6:54 AM,24.1,21.9,91,30.09,9.0,SSW,3.5,-,N/A,,Clear,200,2013-03-14 11:54:00
7:34 AM,23.0,21.2,93,30.01,2.0,Calm,Calm,-,N/A,,Clear,0,2013-03-14 12:34:00
7:45 AM,21.2,21.2,100,30.02,4.0,SSW,5.8,-,N/A,,Clear,210,2013-03-14 12:45:00
7:54 AM,21.9,21.0,96,30.10,10.0,SW,6.9,-,N/A,,Clear,230,2013-03-14 12:54:00
8:54 AM,26.1,24.1,92,30.11,10.0,WSW,4.6,-,N/A,,Clear,240,2013-03-14 13:54:00
9:54 AM,25.0,23.0,92,30.12,8.0,Calm,Calm,-,N/A,,Clear,0,2013-03-14 14:54:00
10:54 AM,34.0,28.9,82,30.10,10.0,WSW,5.8,-,N/A,,Clear,240,2013-03-14 15:54:00
11:54 AM,37.0,30.0,76,30.09,10.0,WNW,6.9,-,N/A,,Clear,300,2013-03-14 16:54:00
12:54 PM,34.0,28.0,79,30.13,10.0,North,12.7,-,N/A,,Clear,10,2013-03-14 17:54:00
1:04 PM,32.0,26.6,80,30.05,9.0,North,12.7,-,N/A,,Clear,360,2013-03-14 18:04:00
1:54 PM,30.0,25.0,82,30.13,7.0,North,6.9,-,N/A,,Clear,10,2013-03-14 18:54:00
2:31 PM,28.4,24.8,86,30.05,6.0,North,12.7,-,N/A,,Scattered Clouds,350,2013-03-14 19:31:00
2:41 PM,28.4,24.8,86,30.05,4.0,NNW,11.5,-,N/A,,Mostly Cloudy,340,2013-03-14 19:41:00
2:54 PM,28.0,25.0,88,30.14,3.0,NNW,11.5,-,N/A,,Overcast,340,2013-03-14 19:54:00
3:03 PM,26.6,24.8,93,30.05,1.8,NNW,13.8,-,N/A,,Overcast,340,2013-03-14 20:03:00
3:36 PM,26.6,24.8,93,30.06,3.0,NNW,12.7,-,N/A,,Overcast,340,2013-03-14 20:36:00
3:54 PM,28.0,24.1,85,30.14,6.0,NW,10.4,-,N/A,,Overcast,320,2013-03-14 20:54:00
4:04 PM,28.4,24.8,86,30.06,5.0,WNW,10.4,-,N/A,,Overcast,300,2013-03-14 21:04:00
4:33 PM,28.4,24.8,86,30.07,8.0,NW,13.8,-,N/A,,Scattered Clouds,320,2013-03-14 21:33:00
4:54 PM,28.9,23.0,78,30.14,10.0,NNW,13.8,-,N/A,,Scattered Clouds,340,2013-03-14 21:54:00
5:54 PM,27.0,21.9,81,30.17,10.0,NNW,13.8,-,N/A,,Overcast,340,2013-03-14 22:54:00
6:54 PM,25.0,19.9,81,30.17,10.0,NNW,11.5,-,N/A,,Overcast,340,2013-03-14 23:54:00
7:40 PM,24.8,19.4,80,30.09,9.0,NNW,15.0,-,N/A,,Overcast,340,2013-03-15 00:40:00
7:54 PM,24.1,19.0,81,30.18,9.0,NNW,13.8,-,N/A,,Overcast,340,2013-03-15 00:54:00
8:54 PM,24.1,21.0,88,30.19,7.0,NE,8.1,-,N/A,,Overcast,40,2013-03-15 01:54:00
9:54 PM,25.0,21.9,88,30.20,7.0,NNE,5.8,-,N/A,,Overcast,30,2013-03-15 02:54:00
10:54 PM,24.1,21.9,91,30.18,7.0,ENE,8.1,-,N/A,,Overcast,60,2013-03-15 03:54:00
11:54 PM,21.9,17.1,82,30.19,3.0,ENE,12.7,-,0.00,Snow,Light Snow,70,2013-03-15 04:54:00